Regional Weather Roundup
Issued by NWS

Home | Current Version | Previous Version | Graphics & Text | Print | Product List | Glossary Off
Versions: 1 2 3 4 5 6 7 8 9 10 11 12 13 14 15 16 17 18 19 20 21 22 23 24 25 26 27 28 29 30 31 32 33 34 35 36 37 38 39 40 41 42 43 44 45 46 47 48 49 50

000
ASUS43 KFSD 231110
RWRSD

WEATHER ROUNDUP FOR SOUTH DAKOTA
NATIONAL WEATHER SERVICE SIOUX FALLS SD
500 AM CST THU NOV 23 2017

NOTE: "FAIR" INDICATES FEW OR NO CLOUDS BELOW 12,000 FEET WITH NO
SIGNIFICANT WEATHER AND/OR OBSTRUCTIONS TO VISIBILITY.


SDZ001>005-009-010-012>017-231200-
NORTHWEST AND NORTH CENTRAL SOUTH DAKOTA

CITY           SKY/WX    TMP DP  RH WIND       PRES   REMARKS
BUFFALO          N/A     45  38  76 W13       29.86F
FAITH            N/A     43  39  86 W9        29.93F
MOBRIDGE       CLOUDY    30  28  92 SE8       29.90F WCI  22
$$

SDZ012>016-024>037-041>051-057-063-072>074-231200-
SOUTHWEST AND SOUTH CENTRAL SOUTH DAKOTA

CITY           SKY/WX    TMP DP  RH WIND       PRES   REMARKS
RAPID CTY ARPT CLOUDY    47  36  65 W3        30.00F
PIERRE         CLEAR     35  35 100 SW3       29.95F
CUSTER         CLOUDY    45  34  65 W9        30.09F
ELLSWORTH AFB  CLOUDY    49  39  67 W12       29.99F
PHILIP         CLOUDY    42  37  82 W12       29.97F
PINE RIDGE     PTCLDY    39  36  89 CALM      30.07F
SPEARFISH      FAIR      55  37  50 W8        30.01F
WINNER         FAIR      43  36  76 S8        29.99F
$$

SDZ004>011-016>023-039-040-231200-
NORTHEAST SOUTH DAKOTA

CITY           SKY/WX    TMP DP  RH WIND       PRES   REMARKS
ABERDEEN       CLOUDY    17  17 100 CALM      29.98F
WATERTOWN      CLOUDY    22  20  92 W5        29.95S WCI  16
BROOKINGS      CLOUDY    26  22  84 CALM      29.97R
SISSETON         N/A     24  18  77 W5        29.95S WCI  18
$$

SDZ017-020-022-023-036>040-048>070-231200-
SOUTHEAST SOUTH DAKOTA

CITY           SKY/WX    TMP DP  RH WIND       PRES   REMARKS
SIOUX FALLS    CLOUDY    31  26  82 NW6       29.98R WCI  25
HURON          CLOUDY    23  21  92 CALM      29.99S
CHAMBERLAIN    CLEAR     32  32 100 CALM      29.99S
MITCHELL       CLOUDY    30  26  85 NW5       30.01S WCI  25
YANKTON        CLOUDY    36  30  79 W6        30.01R
$$

ABBREVIATIONS USED IN REMARKS
   TC - TEMPERATURE IN CELSIUS
  WCI - WIND CHILL INDEX
   HX - HEAT INDEX
  VSB - VISIBILITY





USA.gov is the U.S. government's official web portal to all federal, state and local government web resources and services.